Weather History for George, South Africa

Change the Weather History Date:

Sunday, July 22, 2012

  Actual Average Record
Temperature  
Mean Temperature 50 °F -  
Max Temperature 57 °F 64 °F 84 °F (2010)
Min Temperature 44 °F 45 °F 40 °F (2013)
Degree Days  
Heating Degree Days 14    
Moisture  
Dew Point 39 °F    
Average Humidity 67    
Maximum Humidity 93    
Minimum Humidity 34    
Precipitation  
Precipitation 0.00 in - - ()
Sea Level Pressure  
Sea Level Pressure 30.19 in    
Wind  
Wind Speed 14 mph ()    
Max Wind Speed 22 mph    
Max Gust Speed -    
Visibility 7.4 miles    
Events Rain    
Averages and records for this station are not official NWS values.
T = Trace of Precipitation, MM = Missing Value Source: Averaged Metar Reports

Daily Weather History Graph

Daily Weather History Graph

Search for Another Location

Airport:

Trip Planner

Search our weather history database for the weather conditions in past years. The results will help you decide how hot, cold, wet, or windy it might be!

Date:

Astronomy

Jul. 22, 2012 Rise Set
Actual Time 7:29 AM SAST 5:44 PM SAST
Civil Twilight 7:03 AM SAST 6:11 PM SAST
Nautical Twilight 6:32 AM SAST 6:41 PM SAST
Astronomical Twilight 6:02 AM SAST 7:11 PM SAST
Moon 9:10 AM SAST (7/22) 9:17 PM SAST (7/22)
Length of Visible Light 11h 08m
Length of Day
10h 14m
Waxing Crescent, 11% of the Moon is Illuminated
Jul 22
Waxing Crescent
Jul 26
First Quarter
Aug 2
Full
Aug 9
Last Quarter
Aug 17
New

Hourly Weather History & Observations

Time (SAST) Temp. Windchill Dew Point Humidity Pressure Visibility Wind Dir Wind Speed Gust Speed Precip Events Conditions
12:00 AM 48.2 °F - 46.4 °F 93% 30.04 in 6.2 mi West 15.0 mph - N/A   Partly Cloudy
1:00 AM 48.2 °F - 44.6 °F 87% 30.06 in 6.2 mi West 18.4 mph - N/A Rain Light Rain
2:00 AM 48 °F - 44 °F 80% 30.09 in 6 mi WNW 18.4 mph - -  
2:00 AM 48.2 °F - 44.6 °F 87% 30.06 in 6.2 mi WNW 17.3 mph - N/A Rain Light Rain
3:00 AM 48.2 °F - 42.8 °F 82% 30.09 in 6.2 mi WNW 17.3 mph - N/A   Mostly Cloudy
4:00 AM 48.2 °F - 41.0 °F 76% 30.09 in 6.2 mi West 15.0 mph - N/A   Mostly Cloudy
5:00 AM 47 °F - 40 °F 71% 30.14 in 12 mi West 18.4 mph - -   Mostly Cloudy
5:00 AM 48.2 °F - 41.0 °F 76% 30.12 in 6.2 mi West 18.4 mph - N/A   Mostly Cloudy
6:00 AM 46.4 °F 39.2 °F 39.2 °F 76% 30.12 in 6.2 mi West 18.4 mph - N/A   Scattered Clouds
7:00 AM 46.4 °F 40.4 °F 37.4 °F 71% 30.15 in 6.2 mi West 13.8 mph - N/A   Partly Cloudy
8:00 AM 44 °F - 37 °F 68% 30.20 in 12 mi WNW 10.4 mph - -   Partly Cloudy
8:00 AM 44.6 °F 39.2 °F 37.4 °F 76% 30.18 in 6.2 mi WNW 10.4 mph - N/A   Scattered Clouds
9:00 AM 48.2 °F - 37.4 °F 66% 30.18 in 6.2 mi WNW 12.7 mph - N/A   Scattered Clouds
10:00 AM 51.8 °F - 37.4 °F 58% 30.21 in 6.2 mi WNW 17.3 mph - N/A   Scattered Clouds
11:00 AM 54 °F - 38 °F 43% 30.24 in 12 mi West 20.7 mph - -   Partly Cloudy
11:00 AM 53.6 °F - 39.2 °F 58% 30.24 in 6.2 mi West 18.4 mph - N/A   Scattered Clouds
12:00 PM 55.4 °F - 37.4 °F 51% 30.21 in 6.2 mi West 20.7 mph - N/A   Mostly Cloudy
1:00 PM 57.2 °F - 37.4 °F 48% 30.21 in 6.2 mi West 21.9 mph - N/A   Scattered Clouds
2:00 PM 56 °F - 36 °F 34% 30.21 in 12 mi West 18.4 mph - -   Partly Cloudy
2:00 PM 55.4 °F - 35.6 °F 47% 30.18 in 6.2 mi West 18.4 mph - N/A   Scattered Clouds
3:00 PM 57.2 °F - 35.6 °F 44% 30.21 in 6.2 mi West 21.9 mph - N/A   Scattered Clouds
4:00 PM 57.2 °F - 39.2 °F 51% 30.21 in 6.2 mi West 18.4 mph - N/A   Partly Cloudy
5:00 PM 54 °F - 38 °F 43% 30.25 in 12 mi West 15.0 mph - -   Scattered Clouds
5:00 PM 55.4 °F - 37.4 °F 51% 30.24 in 6.2 mi West 15.0 mph - N/A   Partly Cloudy
6:00 PM 50.0 °F - 39.2 °F 66% 30.24 in 6.2 mi West 9.2 mph - N/A   Partly Cloudy
7:00 PM 46.4 °F 42.9 °F 39.2 °F 76% 30.27 in 6.2 mi WNW 6.9 mph - N/A   Partly Cloudy
8:00 PM 44 °F - 40 °F 80% 30.30 in 12 mi WNW 6.9 mph - -   Scattered Clouds
8:00 PM 44.6 °F 40.7 °F 39.2 °F 81% 30.27 in 6.2 mi WNW 6.9 mph - N/A   Partly Cloudy
9:00 PM 46.4 °F 43.5 °F 41.0 °F 81% 30.30 in 6.2 mi WNW 5.8 mph - N/A   Scattered Clouds
10:00 PM 44.6 °F 40.2 °F 39.2 °F 81% 30.30 in - West 8.1 mph - N/A   Clear
11:00 PM 46.4 °F 42.9 °F 39.2 °F 76% 30.30 in - NW 6.9 mph - N/A   Clear